Weather History for Massena, NY

Change the Weather History Date:

Wednesday, June 19, 2013

  Actual Average Record
Temperature  
Mean Temperature 55 °F 65 °F  
Max Temperature 69 °F 77 °F 94 °F (1955)
Min Temperature 41 °F 54 °F 36 °F (1956)
Degree Days  
Heating Degree Days 10    
Cooling Degree Days 0 3  
Month to date cooling degree days 21 35  
Year to date cooling degree days 44 49  
Since 1 June cooling degree days 21 35  
Growing Degree Days 5 (Base 50)    
Moisture  
Dew Point 41 °F    
Average Humidity 66    
Maximum Humidity 96    
Minimum Humidity 35    
Precipitation  
Precipitation 0.00 in 0.11 in 0.99 in (1962)
Month to date precipitation 5.64 2.22  
Year to date precipitation 13.94 14.15  
Sea Level Pressure  
Sea Level Pressure 30.13 in    
Wind  
Wind Speed 2 mph (North)    
Max Wind Speed 9 mph    
Max Gust Speed 15 mph    
Visibility 10 miles    
Events      
T = Trace of Precipitation, MM = Missing Value Source: NWS Daily Summary

Daily Weather History Graph

Daily Weather History Graph

Search for Another Location

Airport:

Trip Planner

Search our weather history database for the weather conditions in past years. The results will help you decide how hot, cold, wet, or windy it might be!

Date:

Astronomy

Jun. 19, 2013 Rise Set
Actual Time 5:12 AM EDT 8:49 PM EDT
Civil Twilight 4:35 AM EDT 9:26 PM EDT
Nautical Twilight 3:45 AM EDT 10:16 PM EDT
Astronomical Twilight 2:39 AM EDT 11:21 PM EDT
Moon 4:31 PM EDT (6/19) 2:04 AM EDT (6/19)
Length of Visible Light 16h 51m
Length of Day
15h 36m
Waxing Gibbous, 80% of the Moon is Illuminated
Jun 19
Waxing Gibbous
Jun 23
Full
Jun 30
Last Quarter
Jul 8
New
Jul 15
First Quarter

Hourly Weather History & Observations

Time (EDT) Temp. Dew Point Humidity Pressure Visibility Wind Dir Wind Speed Gust Speed Precip Events Conditions
12:53 AM 52.0 °F 37.9 °F 59% 30.06 in 10.0 mi North 4.6 mph - N/A   Clear
1:53 AM 50.0 °F 39.0 °F 66% 30.06 in 10.0 mi North 3.5 mph - N/A   Clear
2:53 AM 44.1 °F 39.0 °F 82% 30.07 in 10.0 mi Calm Calm - N/A   Clear
3:53 AM 43.0 °F 39.0 °F 86% 30.08 in 10.0 mi Calm Calm - N/A   Clear
4:53 AM 42.1 °F 39.0 °F 89% 30.09 in 10.0 mi Calm Calm - N/A   Clear
5:53 AM 42.1 °F 41.0 °F 96% 30.11 in 10.0 mi Calm Calm - N/A   Clear
6:53 AM 48.0 °F 45.0 °F 89% 30.13 in 10.0 mi Calm Calm - N/A   Clear
7:53 AM 53.1 °F 42.1 °F 66% 30.14 in 10.0 mi Calm Calm - N/A   Clear
8:53 AM 57.0 °F 42.1 °F 57% 30.15 in 10.0 mi Calm Calm - N/A   Clear
9:53 AM 61.0 °F 37.0 °F 41% 30.15 in 10.0 mi NNE 6.9 mph - N/A   Clear
10:53 AM 63.0 °F 39.9 °F 43% 30.16 in 10.0 mi North 6.9 mph - N/A   Clear
11:53 AM 64.0 °F 39.0 °F 40% 30.16 in 10.0 mi NNW 4.6 mph - N/A   Clear
12:53 PM 64.0 °F 37.9 °F 38% 30.16 in 10.0 mi Variable 3.5 mph - N/A   Clear
1:53 PM 66.0 °F 39.0 °F 37% 30.15 in 10.0 mi Calm Calm - N/A   Clear
2:53 PM 66.9 °F 41.0 °F 39% 30.15 in 10.0 mi Variable 3.5 mph - N/A   Clear
3:53 PM 68.0 °F 42.1 °F 39% 30.14 in 10.0 mi Variable 5.8 mph - N/A   Clear
4:53 PM 68.0 °F 39.9 °F 36% 30.13 in 10.0 mi NW 3.5 mph - N/A   Clear
5:53 PM 68.0 °F 39.9 °F 36% 30.13 in 10.0 mi Calm Calm - N/A   Clear
6:53 PM 66.9 °F 39.0 °F 36% 30.13 in 10.0 mi Variable 3.5 mph - N/A   Clear
7:53 PM 64.9 °F 43.0 °F 45% 30.14 in 10.0 mi Calm Calm - N/A   Clear
8:53 PM 55.0 °F 46.9 °F 74% 30.15 in 10.0 mi Calm Calm - N/A   Clear
9:53 PM 52.0 °F 45.0 °F 77% 30.17 in 10.0 mi Calm Calm - N/A   Clear
10:53 PM 50.0 °F 46.0 °F 86% 30.17 in 10.0 mi Calm Calm - N/A   Clear
11:53 PM 48.9 °F 46.0 °F 90% 30.19 in 10.0 mi Calm Calm - N/A   Clear